New Baltimore, MI

12:18 AM EST on January 19, 2017 (GMT -0500)
Selfridge Angb

Weather History for KMTC - January, 2017

Change the Weather History Date:

Wednesday, January 11, 2017

  Actual Average Record
Temperature  
Mean Temperature 39 °F -  
Max Temperature 51 °F 28 °F 55 °F (2013)
Min Temperature 27 °F 15 °F -2 °F (1999)
Degree Days  
Heating Degree Days 26    
Moisture  
Dew Point 37 °F    
Average Humidity 90    
Maximum Humidity 100    
Minimum Humidity 71    
Precipitation  
Precipitation 0.19 in - - ()
Sea Level Pressure  
Sea Level Pressure 29.79 in    
Wind  
Wind Speed 14 mph (South)    
Max Wind Speed 22 mph    
Max Gust Speed 34 mph    
Visibility 8 miles    
Events Rain , Thunderstorm    
Averages and records for this station are not official NWS values.
T = Trace of Precipitation, MM = Missing Value Source: NWS Daily Summary

Daily Weather History Graph

Daily Weather History Graph

Search for Another Location

Airport or City:

Trip Planner

Search our weather history database for the weather conditions in past years. The results will help you decide how hot, cold, wet, or windy it might be!

Date:

Astronomy

Jan. 11, 2017 Rise Set
Actual Time 8:00 AM EST 5:19 PM EST
Civil Twilight 7:28 AM EST 5:50 PM EST
Nautical Twilight 6:53 AM EST 6:25 PM EST
Astronomical Twilight 6:19 AM EST 6:59 PM EST
Moon 4:52 PM EST (1/11) 6:53 AM EST (1/11)
Length of Visible Light 10h 21m
Length of Day
9h 18m
Waxing Gibbous, 99% of the Moon is Illuminated
Jan 11
Waxing Gibbous
Jan 12
Full
Jan 19
Last Quarter
Jan 27
New
Feb 3
First Quarter

Hourly Weather History & Observations

Time (EST) Temp. Windchill Dew Point Humidity Pressure Visibility Wind Dir Wind Speed Gust Speed Precip Events Conditions
12:33 AM 37.4 °F 26.6 °F 30.2 °F 75% 29.69 in 10.0 mi WSW 21.9 mph 28.8 mph N/A   Mostly Cloudy
12:53 AM 37.4 °F 26.9 °F 30.2 °F 75% 29.72 in 10.0 mi WSW 20.7 mph 34.5 mph N/A   Mostly Cloudy
12:58 AM 37.6 °F 28.1 °F 29.8 °F 74% 29.76 in 10.0 mi WSW 17.3 mph 31.1 mph N/A   Mostly Cloudy
1:48 AM 35.6 °F 25.2 °F 28.4 °F 75% 29.81 in 10.0 mi WSW 18.4 mph 32.2 mph N/A   Scattered Clouds
1:58 AM 36.0 °F 25.3 °F 28.8 °F 75% 29.85 in 10.0 mi WSW 19.6 mph 31.1 mph N/A   Partly Cloudy
2:58 AM 34.7 °F 24.7 °F 26.2 °F 71% 29.91 in 10.0 mi WSW 16.1 mph 31.1 mph N/A   Clear
3:58 AM 33.3 °F 21.8 °F 25.9 °F 74% 29.95 in 10.0 mi WSW 19.6 mph 26.5 mph N/A   Clear
4:58 AM 32.4 °F 21.7 °F 24.8 °F 74% 29.98 in 10.0 mi WSW 16.1 mph 23.0 mph N/A   Clear
5:58 AM 31.3 °F 22.7 °F 23.7 °F 74% 30.02 in 10.0 mi WSW 10.4 mph 20.7 mph N/A   Clear
6:58 AM 30.4 °F 21.5 °F 23.5 °F 76% 30.04 in 10.0 mi WSW 10.4 mph - N/A   Clear
7:58 AM 27.1 °F 19.7 °F 22.8 °F 84% 30.05 in 10.0 mi South 6.9 mph - N/A   Scattered Clouds
8:58 AM 29.8 °F 19.8 °F 25.3 °F 83% 30.05 in 10.0 mi South 12.7 mph - N/A   Mostly Cloudy
9:58 AM 32.0 °F 23.0 °F 27.9 °F 85% 30.07 in 5.0 mi South 11.5 mph - N/A   Overcast
10:58 AM 34.0 °F 24.6 °F 30.4 °F 87% 30.05 in 3.0 mi South 13.8 mph - N/A   Overcast
11:58 AM 35.6 °F 27.1 °F 31.5 °F 85% 30.01 in 3.0 mi South 12.7 mph - N/A   Overcast
12:58 PM 35.8 °F 26.5 °F 31.6 °F 85% 29.96 in 3.0 mi South 15.0 mph - N/A   Overcast
1:58 PM 36.5 °F 28.7 °F 32.0 °F 84% 29.91 in 4.0 mi SSE 11.5 mph - N/A   Overcast
2:39 PM 37.4 °F 30.3 °F 32.0 °F 81% 29.88 in 5.0 mi South 10.4 mph - N/A   Overcast
2:48 PM 37.4 °F 30.8 °F 32.0 °F 81% 29.87 in 5.0 mi South 9.2 mph - N/A   Overcast
2:58 PM 37.6 °F 31.6 °F 32.5 °F 82% 29.90 in 5.0 mi SSE 8.1 mph - N/A   Overcast
3:58 PM 37.6 °F 31.6 °F 32.9 °F 83% 29.88 in 5.0 mi SSE 8.1 mph - N/A   Overcast
4:18 PM 37.4 °F 32.8 °F 33.8 °F 87% 29.83 in 5.0 mi ESE 5.8 mph - N/A   Overcast
4:58 PM 36.1 °F 31.4 °F 33.1 °F 89% 29.85 in 5.0 mi ESE 5.8 mph - N/A   Overcast
5:29 PM 37.4 °F 32.8 °F 33.8 °F 87% 29.80 in 5.0 mi ESE 5.8 mph - N/A   Overcast
5:58 PM 37.0 °F 32.4 °F 34.0 °F 89% 29.82 in 5.0 mi SE 5.8 mph - N/A   Overcast
6:13 PM 37.4 °F 32.8 °F 33.8 °F 87% 29.78 in 5.0 mi SE 5.8 mph - N/A   Overcast
6:27 PM 37.4 °F 32.8 °F 35.6 °F 93% 29.76 in 5.0 mi ESE 5.8 mph - N/A Rain Light Rain Showers
6:58 PM 38.7 °F 32.4 °F 38.3 °F 99% 29.79 in 7.0 mi SSE 9.2 mph - 0.01 in Rain Light Rain Showers
7:23 PM 41.0 °F 34.3 °F 41.0 °F 100% 29.74 in 7.0 mi South 11.5 mph - N/A Rain , Thunderstorm Thunderstorms and Rain
7:50 PM 42.8 °F 41.1 °F 42.8 °F 100% 29.73 in 7.0 mi South 3.5 mph - N/A Rain Light Rain Showers
7:58 PM 43.0 °F 38.8 °F 43.0 °F 100% 29.76 in 10.0 mi South 6.9 mph - 0.08 in Rain Light Rain Showers
8:20 PM 42.8 °F 39.3 °F 42.8 °F 100% 29.73 in 10.0 mi South 5.8 mph - N/A   Overcast
8:50 PM 46.4 °F 40.7 °F 46.4 °F 100% 29.69 in 10.0 mi South 12.7 mph - N/A   Overcast
8:58 PM 47.3 °F - 47.3 °F 100% 29.92 in 10.0 mi South 16.1 mph - 0.01 in   Overcast
9:58 PM 45.3 °F 39.7 °F 45.3 °F 100% 29.69 in 10.0 mi South 11.5 mph - N/A   Overcast
10:13 PM 46.4 °F 40.7 °F 46.4 °F 100% 29.64 in 10.0 mi South 12.7 mph - N/A Rain Light Rain Showers
10:16 PM 46.4 °F 41.1 °F 46.4 °F 100% 29.64 in 10.0 mi South 11.5 mph - N/A Rain , Thunderstorm Rain Showers
10:38 PM 46.4 °F 43.5 °F 46.4 °F 100% 29.64 in 8.0 mi SSE 5.8 mph - N/A Rain , Thunderstorm Thunderstorms and Rain
10:58 PM 46.4 °F 41.1 °F 46.4 °F 100% 29.65 in 10.0 mi SSE 11.5 mph - 0.06 in Rain , Thunderstorm Light Rain Showers
10:59 PM 46.4 °F 41.1 °F 46.4 °F 100% 29.61 in 9.0 mi SSE 11.5 mph - N/A Rain Light Rain
11:04 PM 46.4 °F 41.1 °F 46.4 °F 100% 29.61 in 9.0 mi SSE 11.5 mph - N/A Rain Light Rain
11:14 PM 46.4 °F 40.7 °F 46.4 °F 100% 29.61 in 10.0 mi SSE 12.7 mph - N/A Rain Light Rain
11:19 PM 46.4 °F 40.1 °F 46.4 °F 100% 29.60 in 9.0 mi South 15.0 mph - N/A Rain Light Rain
11:29 PM 46.4 °F 40.7 °F 46.4 °F 100% 29.60 in 10.0 mi South 12.7 mph - N/A Rain Light Rain
11:35 PM 46.4 °F 40.4 °F 46.4 °F 100% 29.61 in 10.0 mi South 13.8 mph - N/A   Overcast
11:40 PM 50.0 °F - 50.0 °F 100% 29.61 in 10.0 mi SSW 15.0 mph 21.9 mph N/A   Overcast
11:41 PM 50.0 °F - 50.0 °F 100% 29.61 in 10.0 mi SSW 16.1 mph 23.0 mph N/A Rain Light Rain
11:48 PM 51.8 °F - 51.8 °F 100% 29.61 in 10.0 mi SW 13.8 mph 23.0 mph N/A   Overcast
11:58 PM 51.4 °F - 51.4 °F 100% 29.63 in 10.0 mi SSW 15.0 mph - 0.03 in   Overcast